Time,TemperatureF,DewpointF,PressureIn,WindDirection,WindDirectionDegrees,WindSpeedMPH,WindSpeedGustMPH,Humidity,HourlyPrecipIn,Conditions,Clouds,dailyrainin,SoftwareType,DateUTC
2013-05-20 00:02:00,79.0,68.0,29.72,NNE,30,0.0,-999.0,70,-99.99,,,-99.99,,2013-05-20 05:02:00,
2013-05-20 00:12:00,79.0,68.0,29.71,East,101,1.0,-999.0,70,-99.99,,,-99.99,,2013-05-20 05:12:00,
2013-05-20 00:22:00,79.0,68.0,29.71,East,101,1.0,-999.0,70,-99.99,,,-99.99,,2013-05-20 05:22:00,
2013-05-20 00:32:00,78.0,67.0,29.72,NNE,29,1.0,-999.0,70,-99.99,,,-99.99,,2013-05-20 05:32:00,
2013-05-20 00:42:00,78.0,67.0,29.72,NNE,29,1.0,-999.0,70,-99.99,,,-99.99,,2013-05-20 05:42:00,
2013-05-20 00:52:00,79.0,68.0,29.72,WNW,295,0.0,-999.0,70,-99.99,,,-99.99,,2013-05-20 05:52:00,
2013-05-20 01:01:00,79.0,68.0,29.72,ENE,65,0.0,-999.0,70,-99.99,,,-99.99,,2013-05-20 06:01:00,
2013-05-20 01:11:00,78.0,68.0,29.72,WNW,302,1.0,-999.0,71,-99.99,,,-99.99,,2013-05-20 06:11:00,
2013-05-20 01:21:00,78.0,68.0,29.72,WNW,302,1.0,-999.0,71,-99.99,,,-99.99,,2013-05-20 06:21:00,
2013-05-20 01:32:00,78.0,68.0,29.72,West,271,1.0,-999.0,71,-99.99,,,-99.99,,2013-05-20 06:32:00,
2013-05-20 01:41:00,78.0,68.0,29.72,West,271,1.0,-999.0,71,-99.99,,,-99.99,,2013-05-20 06:41:00,
2013-05-20 01:52:00,78.0,68.0,29.70,ENE,57,1.0,-999.0,72,-99.99,,,-99.99,,2013-05-20 06:52:00,
2013-05-20 02:01:00,77.0,68.0,29.70,NE,34,1.0,-999.0,73,-99.99,,,-99.99,,2013-05-20 07:01:00,
2013-05-20 02:12:00,77.0,68.0,29.70,NE,34,1.0,-999.0,73,-99.99,,,-99.99,,2013-05-20 07:12:00,
2013-05-20 02:21:00,77.0,67.0,29.70,WSW,257,2.0,-999.0,72,-99.99,,,-99.99,,2013-05-20 07:21:00,
2013-05-20 02:32:00,77.0,68.0,29.70,WSW,254,1.0,-999.0,73,-99.99,,,-99.99,,2013-05-20 07:32:00,
2013-05-20 02:42:00,77.0,68.0,29.70,WSW,254,1.0,-999.0,73,-99.99,,,-99.99,,2013-05-20 07:42:00,
2013-05-20 02:52:00,77.0,68.0,29.70,North,355,1.0,-999.0,73,-99.99,,,-99.99,,2013-05-20 07:52:00,
2013-05-20 03:01:00,77.0,68.0,29.70,West,267,1.0,-999.0,73,-99.99,,,-99.99,,2013-05-20 08:01:00,
2013-05-20 03:11:00,77.0,68.0,29.70,West,267,1.0,-999.0,73,-99.99,,,-99.99,,2013-05-20 08:11:00,
2013-05-20 03:21:00,77.0,68.0,29.70,East,81,1.0,-999.0,73,-99.99,,,-99.99,,2013-05-20 08:21:00,
2013-05-20 03:31:00,76.0,67.0,29.70,North,355,1.0,-999.0,73,-99.99,,,-99.99,,2013-05-20 08:31:00,
2013-05-20 03:41:00,76.0,67.0,29.70,North,355,1.0,-999.0,73,-99.99,,,-99.99,,2013-05-20 08:41:00,
2013-05-20 03:52:00,76.0,67.0,29.71,NNE,26,0.0,-999.0,74,-99.99,,,-99.99,,2013-05-20 08:52:00,
2013-05-20 04:01:00,75.0,67.0,29.72,West,281,0.0,-999.0,75,-99.99,,,-99.99,,2013-05-20 09:01:00,
2013-05-20 04:12:00,75.0,67.0,29.72,West,281,0.0,-999.0,75,-99.99,,,-99.99,,2013-05-20 09:12:00,
2013-05-20 04:21:00,74.0,66.0,29.72,West,280,0.0,-999.0,77,-99.99,,,-99.99,,2013-05-20 09:21:00,
2013-05-20 04:32:00,73.0,66.0,29.74,West,281,0.0,-999.0,79,-99.99,,,-99.99,,2013-05-20 09:32:00,
2013-05-20 04:43:00,73.0,66.0,29.74,West,281,0.0,-999.0,79,-99.99,,,-99.99,,2013-05-20 09:43:00,
2013-05-20 04:53:00,73.0,67.0,29.75,West,281,0.0,-999.0,81,-99.99,,,-99.99,,2013-05-20 09:53:00,
2013-05-20 05:03:00,72.0,66.0,29.75,West,281,0.0,-999.0,82,-99.99,,,-99.99,,2013-05-20 10:03:00,
2013-05-20 05:12:00,72.0,66.0,29.75,West,281,0.0,-999.0,82,-99.99,,,-99.99,,2013-05-20 10:12:00,
2013-05-20 05:22:00,72.0,66.0,29.75,West,281,0.0,-999.0,82,-99.99,,,-99.99,,2013-05-20 10:22:00,
2013-05-20 05:32:00,72.0,67.0,29.75,West,281,0.0,-999.0,84,-99.99,,,-99.99,,2013-05-20 10:32:00,
2013-05-20 05:42:00,72.0,67.0,29.75,West,281,0.0,-999.0,84,-99.99,,,-99.99,,2013-05-20 10:42:00,
2013-05-20 05:52:00,72.0,67.0,29.76,NW,308,0.0,-999.0,83,-99.99,,,-99.99,,2013-05-20 10:52:00,
2013-05-20 06:02:00,72.0,67.0,29.75,ENE,65,0.0,-999.0,83,-99.99,,,-99.99,,2013-05-20 11:02:00,
2013-05-20 06:12:00,72.0,67.0,29.75,ENE,65,0.0,-999.0,83,-99.99,,,-99.99,,2013-05-20 11:12:00,
2013-05-20 06:21:00,72.0,66.0,29.76,NNE,21,0.0,-999.0,82,-99.99,,,-99.99,,2013-05-20 11:21:00,
2013-05-20 06:32:00,72.0,66.0,29.76,East,87,0.0,-999.0,82,-99.99,,,-99.99,,2013-05-20 11:32:00,
2013-05-20 06:41:00,72.0,66.0,29.76,East,87,0.0,-999.0,82,-99.99,,,-99.99,,2013-05-20 11:41:00,
2013-05-20 06:52:00,72.0,67.0,29.78,East,87,0.0,-999.0,83,-99.99,,,-99.99,,2013-05-20 11:52:00,
2013-05-20 07:01:00,72.0,67.0,29.78,NW,321,0.0,-999.0,83,-99.99,,,-99.99,,2013-05-20 12:01:00,
2013-05-20 07:11:00,72.0,67.0,29.78,NW,321,0.0,-999.0,83,-99.99,,,-99.99,,2013-05-20 12:11:00,
2013-05-20 07:21:00,71.0,66.0,29.78,NW,321,0.0,-999.0,84,-99.99,,,-99.99,,2013-05-20 12:21:00,
2013-05-20 07:31:00,71.0,66.0,29.79,NW,321,0.0,-999.0,85,-99.99,,,-99.99,,2013-05-20 12:31:00,
2013-05-20 07:41:00,71.0,66.0,29.79,NW,321,0.0,-999.0,85,-99.99,,,-99.99,,2013-05-20 12:41:00,
2013-05-20 07:52:00,71.0,66.0,29.80,NW,321,0.0,-999.0,85,-99.99,,,-99.99,,2013-05-20 12:52:00,
2013-05-20 08:01:00,71.0,67.0,29.80,NNW,329,0.0,-999.0,86,-99.99,,,-99.99,,2013-05-20 13:01:00,
2013-05-20 08:11:00,71.0,67.0,29.80,NNW,329,0.0,-999.0,86,-99.99,,,-99.99,,2013-05-20 13:11:00,
2013-05-20 08:22:00,71.0,67.0,29.80,NNW,329,0.0,-999.0,87,-99.99,,,-99.99,,2013-05-20 13:22:00,
2013-05-20 08:31:00,71.0,67.0,29.80,NNW,329,0.0,-999.0,87,-99.99,,,-99.99,,2013-05-20 13:31:00,
2013-05-20 08:41:00,71.0,67.0,29.80,NNW,329,0.0,-999.0,87,-99.99,,,-99.99,,2013-05-20 13:41:00,
2013-05-20 08:52:00,71.0,67.0,29.80,NNW,329,0.0,-999.0,86,-99.99,,,-99.99,,2013-05-20 13:52:00,
2013-05-20 09:01:00,72.0,68.0,29.80,NNW,329,0.0,-999.0,86,-99.99,,,-99.99,,2013-05-20 14:01:00,
2013-05-20 09:11:00,72.0,68.0,29.80,NNW,329,0.0,-999.0,86,-99.99,,,-99.99,,2013-05-20 14:11:00,
2013-05-20 09:22:00,73.0,67.0,29.79,NNW,329,0.0,-999.0,81,-99.99,,,-99.99,,2013-05-20 14:22:00,
2013-05-20 09:32:00,74.0,67.0,29.78,NNW,329,0.0,-999.0,80,-99.99,,,-99.99,,2013-05-20 14:32:00,
2013-05-20 09:41:00,74.0,67.0,29.78,NNW,329,0.0,-999.0,80,-99.99,,,-99.99,,2013-05-20 14:41:00,
2013-05-20 09:52:00,76.0,68.0,29.78,NNW,329,0.0,-999.0,77,-99.99,,,-99.99,,2013-05-20 14:52:00,
2013-05-20 10:01:00,77.0,68.0,29.78,North,355,0.0,-999.0,74,-99.99,,,-99.99,,2013-05-20 15:01:00,
2013-05-20 10:11:00,77.0,68.0,29.78,North,355,0.0,-999.0,74,-99.99,,,-99.99,,2013-05-20 15:11:00,
2013-05-20 10:21:00,77.0,68.0,29.78,NNW,340,0.0,-999.0,75,-99.99,,,-99.99,,2013-05-20 15:21:00,
2013-05-20 10:33:00,76.0,67.0,29.78,NW,311,0.0,-999.0,75,-99.99,,,-99.99,,2013-05-20 15:33:00,
2013-05-20 10:42:00,76.0,67.0,29.78,NW,311,0.0,-999.0,75,-99.99,,,-99.99,,2013-05-20 15:42:00,
2013-05-20 10:53:00,77.0,68.0,29.78,East,85,0.0,-999.0,74,-99.99,,,-99.99,,2013-05-20 15:53:00,
2013-05-20 11:03:00,77.0,68.0,29.78,SW,227,0.0,-999.0,74,-99.99,,,-99.99,,2013-05-20 16:03:00,
2013-05-20 11:12:00,77.0,68.0,29.78,SW,227,0.0,-999.0,74,-99.99,,,-99.99,,2013-05-20 16:12:00,
2013-05-20 11:22:00,77.0,68.0,29.78,SSE,148,0.0,-999.0,74,-99.99,,,-99.99,,2013-05-20 16:22:00,
2013-05-20 11:33:00,76.0,67.0,29.78,ESE,115,0.0,-999.0,75,-99.99,,,-99.99,,2013-05-20 16:33:00,
2013-05-20 11:42:00,76.0,67.0,29.78,ESE,115,0.0,-999.0,75,-99.99,,,-99.99,,2013-05-20 16:42:00,
2013-05-20 11:53:00,76.0,68.0,29.78,ESE,122,0.0,-999.0,77,-99.99,,,-99.99,,2013-05-20 16:53:00,
2013-05-20 12:02:00,76.0,69.0,29.78,ESE,122,0.0,-999.0,79,-99.99,,,-99.99,,2013-05-20 17:02:00,
2013-05-20 12:12:00,76.0,69.0,29.78,ESE,122,0.0,-999.0,79,-99.99,,,-99.99,,2013-05-20 17:12:00,
2013-05-20 12:22:00,76.0,69.0,29.78,SSE,161,0.0,-999.0,79,-99.99,,,-99.99,,2013-05-20 17:22:00,
2013-05-20 12:33:00,76.0,69.0,29.78,ESE,103,0.0,-999.0,78,-99.99,,,-99.99,,2013-05-20 17:33:00,
2013-05-20 12:45:00,76.0,69.0,29.78,ESE,103,0.0,-999.0,78,-99.99,,,-99.99,,2013-05-20 17:45:00,
2013-05-20 12:53:00,76.0,69.0,29.78,South,182,0.0,-999.0,78,-99.99,,,-99.99,,2013-05-20 17:53:00,
2013-05-20 13:02:00,77.0,70.0,29.77,NNE,19,0.0,-999.0,79,-99.99,,,-99.99,,2013-05-20 18:02:00,
2013-05-20 13:12:00,77.0,70.0,29.77,NNE,19,0.0,-999.0,79,-99.99,,,-99.99,,2013-05-20 18:12:00,
2013-05-20 13:23:00,76.0,69.0,29.77,NNE,19,0.0,-999.0,79,-99.99,,,-99.99,,2013-05-20 18:23:00,
2013-05-20 13:32:00,76.0,69.0,29.77,NNE,19,0.0,-999.0,78,-99.99,,,-99.99,,2013-05-20 18:32:00,
2013-05-20 13:41:00,76.0,69.0,29.77,NNE,19,0.0,-999.0,78,-99.99,,,-99.99,,2013-05-20 18:41:00,
2013-05-20 13:55:00,76.0,69.0,29.77,NNE,20,0.0,-999.0,78,-99.99,,,-99.99,,2013-05-20 18:55:00,
2013-05-20 14:04:00,77.0,70.0,29.76,NNE,20,0.0,-999.0,78,-99.99,,,-99.99,,2013-05-20 19:04:00,
2013-05-20 14:11:00,77.0,70.0,29.76,NNE,20,0.0,-999.0,78,-99.99,,,-99.99,,2013-05-20 19:11:00,
2013-05-20 14:21:00,77.0,70.0,29.76,NNE,29,0.0,-999.0,78,-99.99,,,-99.99,,2013-05-20 19:21:00,
2013-05-20 14:32:00,77.0,70.0,29.75,NNE,29,0.0,-999.0,78,-99.99,,,-99.99,,2013-05-20 19:32:00,
2013-05-20 14:41:00,77.0,70.0,29.75,NNE,29,0.0,-999.0,78,-99.99,,,-99.99,,2013-05-20 19:41:00,
2013-05-20 14:52:00,78.0,70.0,29.75,NNE,30,0.0,-999.0,77,-99.99,,,-99.99,,2013-05-20 19:52:00,
2013-05-20 15:01:00,78.0,71.0,29.75,WNW,291,0.0,-999.0,78,-99.99,,,-99.99,,2013-05-20 20:01:00,
2013-05-20 15:12:00,78.0,71.0,29.75,WNW,292,0.0,-999.0,79,-99.99,,,-99.99,,2013-05-20 20:12:00,
2013-05-20 15:21:00,78.0,71.0,29.75,WNW,292,0.0,-999.0,79,-99.99,,,-99.99,,2013-05-20 20:21:00,
2013-05-20 15:32:00,77.0,70.0,29.74,NW,313,0.0,-999.0,80,-99.99,,,-99.99,,2013-05-20 20:32:00,
2013-05-20 15:42:00,77.0,71.0,29.74,South,178,0.0,-999.0,81,-99.99,,,-99.99,,2013-05-20 20:42:00,
2013-05-20 15:52:00,77.0,71.0,29.74,South,178,0.0,-999.0,81,-99.99,,,-99.99,,2013-05-20 20:52:00,
2013-05-20 16:01:00,77.0,70.0,29.72,NE,34,0.0,-999.0,80,-99.99,,,-99.99,,2013-05-20 21:01:00,
2013-05-20 16:11:00,78.0,71.0,29.72,NE,40,0.0,-999.0,78,-99.99,,,-99.99,,2013-05-20 21:11:00,
2013-05-20 16:21:00,78.0,71.0,29.72,NE,40,0.0,-999.0,78,-99.99,,,-99.99,,2013-05-20 21:21:00,
2013-05-20 16:32:00,78.0,71.0,29.71,NE,40,1.0,-999.0,78,-99.99,,,-99.99,,2013-05-20 21:32:00,
2013-05-20 16:43:00,78.0,71.0,29.70,NE,53,0.0,-999.0,79,-99.99,,,-99.99,,2013-05-20 21:43:00,
2013-05-20 16:53:00,78.0,71.0,29.70,NE,53,0.0,-999.0,79,-99.99,,,-99.99,,2013-05-20 21:53:00,
2013-05-20 17:02:00,78.0,71.0,29.68,NE,53,0.0,-999.0,79,-99.99,,,-99.99,,2013-05-20 22:02:00,
2013-05-20 17:12:00,78.0,71.0,29.68,NE,53,0.0,-999.0,79,-99.99,,,-99.99,,2013-05-20 22:12:00,
2013-05-20 17:23:00,78.0,70.0,29.68,NE,39,0.0,-999.0,77,-99.99,,,-99.99,,2013-05-20 22:23:00,
2013-05-20 17:33:00,79.0,71.0,29.68,NE,39,0.0,-999.0,77,-99.99,,,-99.99,,2013-05-20 22:33:00,
2013-05-20 17:42:00,79.0,71.0,29.68,NE,39,0.0,-999.0,77,-99.99,,,-99.99,,2013-05-20 22:42:00,
2013-05-20 17:52:00,79.0,71.0,29.67,East,90,0.0,-999.0,76,-99.99,,,-99.99,,2013-05-20 22:52:00,
2013-05-20 18:02:00,80.0,72.0,29.67,NE,56,0.0,-999.0,76,-99.99,,,-99.99,,2013-05-20 23:02:00,
2013-05-20 18:12:00,80.0,72.0,29.67,NE,56,0.0,-999.0,76,-99.99,,,-99.99,,2013-05-20 23:12:00,
2013-05-20 18:22:00,80.0,72.0,29.69,NE,56,0.0,-999.0,77,-99.99,,,-99.99,,2013-05-20 23:22:00,
2013-05-20 18:32:00,79.0,71.0,29.68,NE,56,0.0,-999.0,77,-99.99,,,-99.99,,2013-05-20 23:32:00,
2013-05-20 18:42:00,79.0,71.0,29.68,NE,56,0.0,-999.0,77,-99.99,,,-99.99,,2013-05-20 23:42:00,
2013-05-20 18:53:00,79.0,72.0,29.68,ENE,57,0.0,-999.0,78,-99.99,,,-99.99,,2013-05-20 23:53:00,
2013-05-20 19:01:00,79.0,72.0,29.67,NE,56,0.0,-999.0,79,-99.99,,,-99.99,,2013-05-21 00:01:00,
2013-05-20 19:11:00,79.0,72.0,29.67,NE,56,0.0,-999.0,79,-99.99,,,-99.99,,2013-05-21 00:11:00,
2013-05-20 19:21:00,79.0,72.0,29.66,NW,304,0.0,-999.0,80,-99.99,,,-99.99,,2013-05-21 00:21:00,
2013-05-20 19:31:00,78.0,72.0,29.66,WNW,297,0.0,-999.0,82,-99.99,,,-99.99,,2013-05-21 00:31:00,
2013-05-20 19:41:00,77.0,71.0,29.67,ESE,123,0.0,-999.0,83,-99.99,,,-99.99,,2013-05-21 00:41:00,
2013-05-20 19:52:00,77.0,71.0,29.67,ESE,123,0.0,-999.0,83,-99.99,,,-99.99,,2013-05-21 00:52:00,
2013-05-20 20:01:00,76.0,71.0,29.67,ESE,123,0.0,-999.0,85,-99.99,,,-99.99,,2013-05-21 01:01:00,
2013-05-20 20:11:00,76.0,71.0,29.67,ESE,123,0.0,-999.0,85,-99.99,,,-99.99,,2013-05-21 01:11:00,
2013-05-20 20:22:00,75.0,71.0,29.68,ESE,123,0.0,-999.0,86,-99.99,,,-99.99,,2013-05-21 01:22:00,
2013-05-20 20:32:00,75.0,71.0,29.67,ESE,123,0.0,-999.0,88,-99.99,,,-99.99,,2013-05-21 01:32:00,
2013-05-20 20:42:00,74.0,71.0,29.69,ESE,123,0.0,-999.0,89,-99.99,,,-99.99,,2013-05-21 01:42:00,
2013-05-20 20:53:00,74.0,71.0,29.69,ESE,123,0.0,-999.0,89,-99.99,,,-99.99,,2013-05-21 01:53:00,
2013-05-20 21:02:00,73.0,70.0,29.70,ESE,123,0.0,-999.0,90,-99.99,,,-99.99,,2013-05-21 02:02:00,
2013-05-20 21:11:00,73.0,70.0,29.70,ESE,123,0.0,-999.0,90,-99.99,,,-99.99,,2013-05-21 02:11:00,
2013-05-20 21:21:00,73.0,70.0,29.72,ESE,123,0.0,-999.0,90,-99.99,,,-99.99,,2013-05-21 02:21:00,
2013-05-20 21:32:00,73.0,70.0,29.73,ESE,123,0.0,-999.0,91,-99.99,,,-99.99,,2013-05-21 02:32:00,
2013-05-20 21:41:00,72.0,69.0,29.74,ESE,123,0.0,-999.0,91,-99.99,,,-99.99,,2013-05-21 02:41:00,
2013-05-20 21:52:00,72.0,69.0,29.74,ESE,123,0.0,-999.0,91,-99.99,,,-99.99,,2013-05-21 02:52:00,
2013-05-20 22:02:00,72.0,69.0,29.74,ESE,123,0.0,-999.0,91,-99.99,,,-99.99,,2013-05-21 03:02:00,
2013-05-20 22:11:00,72.0,69.0,29.74,ESE,123,0.0,-999.0,91,-99.99,,,-99.99,,2013-05-21 03:11:00,
2013-05-20 22:21:00,72.0,69.0,29.74,ESE,123,0.0,-999.0,91,-99.99,,,-99.99,,2013-05-21 03:21:00,
2013-05-20 22:33:00,75.0,63.0,29.77,West,276,5.0,-999.0,67,-99.99,,,-99.99,,2013-05-21 03:33:00,
2013-05-20 22:43:00,73.0,61.0,29.78,West,270,6.0,-999.0,67,-99.99,,,-99.99,,2013-05-21 03:43:00,
2013-05-20 22:53:00,73.0,61.0,29.78,West,270,6.0,-999.0,67,-99.99,,,-99.99,,2013-05-21 03:53:00,
2013-05-20 23:03:00,68.0,63.0,29.78,WSW,238,0.0,-999.0,83,-99.99,,,-99.99,,2013-05-21 04:03:00,
2013-05-20 23:13:00,68.0,63.0,29.78,WSW,238,0.0,-999.0,83,-99.99,,,-99.99,,2013-05-21 04:13:00,
2013-05-20 23:23:00,65.0,61.0,29.80,WSW,238,0.0,-999.0,88,-99.99,,,-99.99,,2013-05-21 04:23:00,
2013-05-20 23:33:00,64.0,61.0,29.84,WSW,252,1.0,-999.0,90,-99.99,,,-99.99,,2013-05-21 04:33:00,
2013-05-20 23:42:00,64.0,61.0,29.84,WSW,252,1.0,-999.0,90,-99.99,,,-99.99,,2013-05-21 04:42:00,
2013-05-20 23:53:00,64.0,61.0,29.82,WSW,252,2.0,-999.0,91,-99.99,,,-99.99,,2013-05-21 04:53:00,